Location: Carrer del Canonge
(41.4901°N, 2.2931°E)
Time: 04:15:31
(UTC+00:00)

CSL-04 Debris - Pass Details

Date: 18 September 2020
Orbit: 827 x 847 km, 98.9° (Epoch: 25 October)

Event Time Altitude Azimuth Distance (km) Brightness Sun altitude
Rises 18:14:53 0° 149° (SSE) 3,359 7.0 -4.7°
Reaches altitude 10° 18:17:17 10° 144° (SE) 2,428 6.2 -5.1°
Maximum altitude 18:22:26 50° 70° (ENE) 1,053 4.4 -6.1°
Drops below altitude 10° 18:27:37 10° 357° (N) 2,440 6.8 -7.0°
Sets 18:30:02 0° 352° (N) 3,377 7.6 -7.5°
